Location: Grand Rapids
(42.9630°N, 85.6680°W)
Time: 01:37:10
(UTC-04:00)

S-56A Canister/Altair - Pass Details

Date: 04 June 2024
Orbit: 637 x 2489 km, 38.9° (Epoch: 21 June)

Event Time Altitude Azimuth Distance (km) Brightness Sun altitude
Rises 01:37:33 0° 197° (SSW) 5,616 - -24.5°
Reaches altitude 10° 01:41:50 10° 186° (S) 4,823 - -24.5°
Exits shadow 01:50:03 26° 151° (SSE) 3,901 10.6 -24.5°
Maximum altitude 01:52:44 28° 135° (SE) 3,857 10.7 -24.5°
Drops below altitude 10° 02:04:04 10° 86° (E) 5,063 11.8 -24.3°
Sets 02:08:38 0° 76° (ENE) 5,939 12.3 -24.2°
